Previsão horária em Ploska

Hoje, 5 Março, Sexta-feira

Tempo Temperatura Precipitação Vento Pressão Humidade
00:00 +2°C° 0 mm 2 m/s 739 mmHg 89%
01:00 +2°C° 0 mm 2 m/s 739 mmHg 90%
02:00 +1°C° 0 mm 1 m/s 739 mmHg 93%
03:00 +1°C° 0 mm 1 m/s 739 mmHg 95%
04:00 -1°C° 0 mm 2 m/s 739 mmHg 96%
05:00 -1°C° 0 mm 2 m/s 739 mmHg 98%
06:00 -1°C° 0.1 mm 2 m/s 739 mmHg 97%
07:00 -1°C° 0.1 mm 2 m/s 739 mmHg 96%
08:00 -1°C° 0 mm 2 m/s 740 mmHg 95%
09:00 -1°C° 0.4 mm 2 m/s 740 mmHg 94%
10:00 -1°C° 0.4 mm 3 m/s 740 mmHg 94%
11:00 -2°C° 0.4 mm 4 m/s 741 mmHg 93%
12:00 -1°C° 0.2 mm 3 m/s 741 mmHg 90%
13:00 0°C° 0.2 mm 3 m/s 741 mmHg 86%
14:00 +1°C° 0 mm 2 m/s 741 mmHg 87%
15:00 +1°C° 0.2 mm 2 m/s 742 mmHg 86%
16:00 0°C° 0.2 mm 3 m/s 742 mmHg 84%
17:00 0°C° 0.2 mm 3 m/s 742 mmHg 82%
18:00 -1°C° 0 mm 3 m/s 743 mmHg 80%
19:00 -2°C° 0 mm 3 m/s 744 mmHg 78%
20:00 -2°C° 0 mm 3 m/s 744 mmHg 76%
21:00 -4°C° 0 mm 3 m/s 745 mmHg 78%
22:00 -4°C° 0 mm 3 m/s 745 mmHg 80%
23:00 -5°C° 0 mm 3 m/s 746 mmHg 82%

Amanhã, 6 Março, Sábado

Tempo Temperatura Precipitação Vento Pressão Humidade
00:00 -5°C° 0 mm 3 m/s 746 mmHg 84%
01:00 -5°C° 0 mm 2 m/s 747 mmHg 85%
02:00 -5°C° 0 mm 2 m/s 747 mmHg 86%
03:00 -5°C° 0 mm 2 m/s 747 mmHg 85%
04:00 -6°C° 0 mm 2 m/s 747 mmHg 83%
05:00 -6°C° 0 mm 2 m/s 747 mmHg 82%
06:00 -5°C° 0 mm 2 m/s 748 mmHg 80%
07:00 -5°C° 0 mm 2 m/s 748 mmHg 77%
08:00 -5°C° 0 mm 2 m/s 748 mmHg 75%
09:00 -4°C° 0 mm 3 m/s 749 mmHg 71%
10:00 -3°C° 0 mm 4 m/s 749 mmHg 66%
11:00 -2°C° 0 mm 5 m/s 749 mmHg 62%
12:00 -1°C° 0.2 mm 5 m/s 749 mmHg 59%
13:00 -2°C° 0.2 mm 6 m/s 749 mmHg 55%
14:00 -2°C° 0.2 mm 6 m/s 749 mmHg 51%
15:00 -1°C° 0 mm 5 m/s 749 mmHg 53%
16:00 -2°C° 0 mm 5 m/s 749 mmHg 54%
17:00 -2°C° 0 mm 4 m/s 749 mmHg 55%
18:00 -3°C° 0 mm 4 m/s 749 mmHg 60%
19:00 -4°C° 0 mm 3 m/s 749 mmHg 65%
20:00 -4°C° 0 mm 3 m/s 749 mmHg 70%
21:00 -4°C° 0 mm 3 m/s 749 mmHg 71%
22:00 -4°C° 0 mm 3 m/s 749 mmHg 71%
23:00 -4°C° 0 mm 4 m/s 749 mmHg 72%

Depois de amanhã, 7 Março, Domingo

Tempo Temperatura Precipitação Vento Pressão Humidade
00:00 -4°C° 0 mm 4 m/s 748 mmHg 73%
01:00 -5°C° 0 mm 5 m/s 748 mmHg 73%
02:00 -5°C° 0 mm 5 m/s 747 mmHg 74%
03:00 -5°C° 0 mm 6 m/s 747 mmHg 73%
04:00 -5°C° 0 mm 6 m/s 746 mmHg 73%
05:00 -6°C° 0 mm 7 m/s 745 mmHg 72%
06:00 -4°C° 0 mm 7 m/s 745 mmHg 70%
07:00 -5°C° 0 mm 8 m/s 744 mmHg 69%
08:00 -5°C° 0 mm 9 m/s 744 mmHg 67%
09:00 -4°C° 0 mm 9 m/s 743 mmHg 67%
10:00 -3°C° 0 mm 10 m/s 743 mmHg 67%
11:00 -2°C° 0 mm 10 m/s 743 mmHg 67%
12:00 -2°C° 0 mm 10 m/s 742 mmHg 68%
13:00 -2°C° 0 mm 10 m/s 742 mmHg 68%
14:00 0°C° 0 mm 10 m/s 742 mmHg 69%
15:00 -1°C° 0 mm 9 m/s 741 mmHg 71%
16:00 -1°C° 0 mm 9 m/s 741 mmHg 73%
17:00 -2°C° 0 mm 8 m/s 740 mmHg 76%
18:00 -2°C° 0 mm 8 m/s 740 mmHg 76%
19:00 -2°C° 0 mm 8 m/s 740 mmHg 77%
20:00 -3°C° 0 mm 7 m/s 740 mmHg 78%
21:00 -3°C° 0 mm 7 m/s 740 mmHg 79%
22:00 -3°C° 0 mm 7 m/s 740 mmHg 80%
23:00 -4°C° 0 mm 7 m/s 740 mmHg 81%

8 Março, Segunda-feira

Tempo Temperatura Precipitação Vento Pressão Humidade
00:00 -4°C° 0 mm 7 m/s 740 mmHg 83%
01:00 -4°C° 0 mm 7 m/s 740 mmHg 84%
02:00 -4°C° 0 mm 7 m/s 740 mmHg 86%
03:00 -4°C° 0.2 mm 6 m/s 740 mmHg 85%
04:00 -5°C° 0.2 mm 6 m/s 739 mmHg 84%
05:00 -5°C° 0.2 mm 5 m/s 739 mmHg 83%
06:00 -5°C° 0 mm 5 m/s 740 mmHg 78%
07:00 -5°C° 0 mm 5 m/s 740 mmHg 73%
08:00 -5°C° 0 mm 5 m/s 740 mmHg 68%
09:00 -4°C° 0 mm 5 m/s 741 mmHg 63%
10:00 -4°C° 0 mm 5 m/s 741 mmHg 59%
11:00 -2°C° 0 mm 5 m/s 741 mmHg 55%
12:00 -2°C° 0 mm 5 m/s 741 mmHg 54%
13:00 -2°C° 0 mm 5 m/s 741 mmHg 53%
14:00 -1°C° 0 mm 5 m/s 742 mmHg 52%
15:00 -1°C° 0 mm 5 m/s 742 mmHg 54%
16:00 -2°C° 0 mm 4 m/s 742 mmHg 57%
17:00 -2°C° 0 mm 4 m/s 742 mmHg 59%
18:00 -2°C° 0 mm 3 m/s 742 mmHg 64%
19:00 -2°C° 0 mm 3 m/s 742 mmHg 68%
20:00 -3°C° 0 mm 2 m/s 743 mmHg 73%
21:00 -4°C° 0 mm 3 m/s 743 mmHg 76%
22:00 -4°C° 0 mm 3 m/s 743 mmHg 78%
23:00 -5°C° 0 mm 3 m/s 744 mmHg 81%

9 Março, Terça-feira

Tempo Temperatura Precipitação Vento Pressão Humidade
00:00 -5°C° 0 mm 3 m/s 744 mmHg 83%
01:00 -5°C° 0 mm 3 m/s 744 mmHg 86%
02:00 -5°C° 0 mm 3 m/s 744 mmHg 88%
03:00 -5°C° 0 mm 3 m/s 744 mmHg 87%
04:00 -6°C° 0 mm 3 m/s 745 mmHg 85%
05:00 -6°C° 0 mm 3 m/s 745 mmHg 84%
06:00 -6°C° 0 mm 3 m/s 746 mmHg 83%
07:00 -6°C° 0 mm 3 m/s 746 mmHg 81%
08:00 -6°C° 0 mm 3 m/s 747 mmHg 80%
09:00 -6°C° 0 mm 3 m/s 747 mmHg 72%
10:00 -5°C° 0 mm 3 m/s 748 mmHg 65%
11:00 -3°C° 0 mm 2 m/s 748 mmHg 58%
12:00 -3°C° 0 mm 2 m/s 748 mmHg 52%
13:00 -2°C° 0 mm 2 m/s 748 mmHg 46%
14:00 0°C° 0 mm 1 m/s 749 mmHg 41%
15:00 0°C° 0 mm 1 m/s 748 mmHg 41%
16:00 0°C° 0 mm 1 m/s 748 mmHg 42%
17:00 -1°C° 0 mm 0 m/s 748 mmHg 43%
18:00 -1°C° 0 mm 1 m/s 748 mmHg 46%
19:00 -1°C° 0 mm 1 m/s 748 mmHg 50%
20:00 -2°C° 0 mm 1 m/s 749 mmHg 54%
21:00 -2°C° 0 mm 1 m/s 749 mmHg 55%
22:00 -4°C° 0 mm 2 m/s 749 mmHg 57%
23:00 -4°C° 0 mm 2 m/s 749 mmHg 58%

10 Março, Quarta-feira

Tempo Temperatura Precipitação Vento Pressão Humidade
00:00 -4°C° 0 mm 2 m/s 749 mmHg 60%
01:00 -4°C° 0 mm 2 m/s 748 mmHg 62%
02:00 -4°C° 0 mm 2 m/s 748 mmHg 63%
03:00 -4°C° 0 mm 2 m/s 748 mmHg 66%
04:00 -5°C° 0 mm 2 m/s 748 mmHg 68%
05:00 -5°C° 0 mm 2 m/s 747 mmHg 70%
06:00 -4°C° 0 mm 2 m/s 747 mmHg 69%
07:00 -5°C° 0 mm 3 m/s 747 mmHg 68%
08:00 -5°C° 0 mm 3 m/s 747 mmHg 67%
09:00 -4°C° 0 mm 3 m/s 747 mmHg 61%
10:00 -2°C° 0 mm 3 m/s 747 mmHg 56%
11:00 -2°C° 0 mm 4 m/s 747 mmHg 51%
12:00 -1°C° 0 mm 4 m/s 746 mmHg 49%
13:00 0°C° 0 mm 4 m/s 746 mmHg 47%
14:00 0°C° 0 mm 4 m/s 745 mmHg 45%
15:00 0°C° 0 mm 4 m/s 745 mmHg 48%
16:00 +1°C° 0 mm 3 m/s 744 mmHg 50%
17:00 0°C° 0 mm 3 m/s 744 mmHg 53%
18:00 0°C° 0 mm 3 m/s 744 mmHg 56%
19:00 -1°C° 0 mm 3 m/s 743 mmHg 60%
20:00 -2°C° 0 mm 3 m/s 743 mmHg 64%
21:00 -2°C° 0 mm 3 m/s 743 mmHg 65%
22:00 -2°C° 0 mm 4 m/s 743 mmHg 65%
23:00 -2°C° 0 mm 4 m/s 743 mmHg 66%
Mostrar mais

Necessitamos do seu Consentimento

A Meteoprog e os seus Fornecedores de Serviços podem armazenar e aceder a dados pessoais como cookies, identificadores do dispositivo ou outras tecnologias semelhantes existentes no seu dispositivo e processar estes dados para personalizar conteúdos e anúncios, assim como funcionalidades nas redes sociais e análise de tráfego.

  • Armazenar e/ou aceder a informações no seu dispositivo

    Os cookies, identificadores do dispositivo ou outras informações podem ser armazenados ou acedidos no seu dispositivo, para os fins acima indicados.

  • Anúncios e conteúdos personalizados, medição de anúncios e conteúdos, dados sobre o público-alvo e desenvolvimento de produtos

    Os anúncios e os conteúdos podem ser personalizados com base num perfil. Podem ser adicionados dados adicionais para uma maior personalização dos anúncios e dos conteúdos. A eficácia dos anúncios e dos conteúdos pode ser medida. Podem ser obtidas informações sobre o público que visualizou os anúncios e os conteúdos. Estes dados podem ser usados para desenvolver ou melhorar sistemas, softwares ou a experiência do utilizador.

Ao clicar em "Eu concordo”, permitirá o uso de cookies, identificadores do dispositivo e web beacons mencionados ou outras tecnologias semelhantes. As configurações do navegador do seu dispositivo podem ser alteradas.

Para certos fins, podem ser invocados interesses legítimos ao invés de consentimento. Pode ler mais informação sobre este assunto na nossa Política de Privacidade e Cookies.